Terminal Aerodrome Forecast
Issued by NWS Pittsburgh, PA

Current Version | Previous Version | Graphics & Text | Print | Product List | Glossary On
Versions: 1 2 3 4 5 6 7 8 9 10 11 12 13 14 15 16 17 18 19 20 21 22 23 24 25 26 27 28 29
962
FTUS41 KPBZ 091739
TAFPIT
TAF
KPIT 091739Z 0918/1024 20006KT P6SM SCT250
     FM092200 26009KT P6SM OVC080
     FM100300 27012KT 6SM -SHSN OVC015
     FM101300 28012G20KT P6SM BKN025
     FM101700 26012G21KT P6SM BKN035=

USA.gov is the U.S. government's official web portal to all federal, state and local government web resources and services.